This is the latest recevied weather packets stored in our database for station/object KC0RPY. If no packets are shown the sender has not sent any weather packets the latest 10 day(s).
| Time | Temp. | Humidity | Pressure | Rain* | Wind** | Luminosity | Snow |
|---|---|---|---|---|---|---|---|
| 1777847533 | 28.33° C | 29% | 1009.4 hPa | 0 mm | - | 348 W/m² | - |
| 1777847230 | 28.33° C | 28% | 1009.4 hPa | 0 mm | - | 403 W/m² | - |
| 1777846928 | 28.33° C | 27% | 1009 hPa | 0 mm | - | 436 W/m² | - |
| 1777846626 | 28.33° C | 27% | 1009.4 hPa | 0 mm | - | 433 W/m² | - |
| 1777846323 | 28.33° C | 26% | 1009.4 hPa | 0 mm | - | 391 W/m² | - |
| 1777846020 | 28.33° C | 26% | 1009.7 hPa | 0 mm | - | 462 W/m² | - |
| 1777845716 | 28.33° C | 29% | 1009.4 hPa | 0 mm | - | 535 W/m² | - |
| 1777845413 | 28.33° C | 30% | 1009.7 hPa | 0 mm | - | 510 W/m² | - |
| 1777845109 | 28.33° C | 30% | 1009.7 hPa | 0 mm | - | 503 W/m² | - |
| 1777844808 | 28.33° C | 30% | 1009.4 hPa | 0 mm | - | 528 W/m² | - |
| 1777844504 | 28.33° C | 30% | 1009.7 hPa | 0 mm | - | 537 W/m² | - |
| 1777844198 | 27.78° C | 31% | 1009.7 hPa | 0 mm | - | 545 W/m² | - |
| 1777843894 | 28.33° C | 31% | 1009.7 hPa | 0 mm | - | 536 W/m² | - |
| 1777843591 | 28.33° C | 31% | 1009.7 hPa | 0 mm | - | 544 W/m² | - |
| 1777843289 | 28.33° C | 31% | 1009.7 hPa | 0 mm | - | 577 W/m² | - |
| 1777842987 | 27.78° C | 34% | 1010 hPa | 0 mm | - | 614 W/m² | - |
| 1777842681 | 28.33° C | 34% | 1010 hPa | 0 mm | - | 630 W/m² | - |
| 1777842378 | 27.78° C | 34% | 1010 hPa | 0 mm | - | 637 W/m² | - |
| 1777842074 | 27.78° C | 33% | 1010.4 hPa | 0 mm | - | 620 W/m² | - |
| 1777841765 | 28.33° C | 33% | 1010.4 hPa | 0 mm | - | 662 W/m² | - |
| 1777841462 | 27.78° C | 35% | 1010.4 hPa | 0 mm | - | 689 W/m² | - |
| 1777841159 | 27.22° C | 34% | 1010.4 hPa | 0 mm | - | 686 W/m² | - |
| 1777840856 | 27.78° C | 34% | 1010.7 hPa | 0 mm | - | 698 W/m² | - |
| 1777840553 | 27.78° C | 35% | 1010.7 hPa | 0 mm | - | 691 W/m² | - |
| 1777840250 | 27.78° C | 34% | 1010.7 hPa | 0 mm | - | 626 W/m² | - |
* Rain latest hour (hover to see other rain measurements)
** Current wind speed in m/s (hover to see current wind gust speed)